Torna al catalogo

CALIPSO

AttivoScienzaSSO
NORAD 29108·PAYLOAD·🇫🇷 France

Lanciato Apr 28, 2006 da Vandenberg Space Force Base

Loading…

Prossimi Passaggi (prossime 24 ore)

TLE

AggiornatoSource: Space-Track

Epoca: Sep 14, 2026, 13:39 UTC

1 29108U 06016B   26257.56879387  .00000584  00000-0  10743-3 0  9993
2 29108  98.4466 276.2868 0001388  71.8251 288.3105 14.69487233 86189

Traccia CALIPSO in tempo reale con AllMySat

Download on the App Store